| time (UTC) | temp C | wind direction | speed KPH | gust KPH | rain 1hr cm | rain 24hr cm | rain mn cm | humidity % | barometer mb |
| 20260503005944 | 15 | 311 | 1.6 | 3.2 | 0.00 | 0.00 | 0.00 | 50 | 1020.1 |
| 20260503005441 | 15 | 2 | 3.2 | 4.8 | 0.00 | 0.00 | 0.00 | 50 | 1019.9 |
| 20260503004938 | 16 | 292 | 0.0 | 4.8 | 0.00 | 0.00 | 0.00 | 51 | 1019.8 |
| 20260503004435 | 16 | 217 | 1.6 | 1.6 | 0.00 | 0.00 | 0.00 | 49 | 1019.4 |
| 20260503003932 | 16 | 354 | 0.0 | 0.0 | 0.00 | 0.00 | 0.00 | 47 | 1019.4 |
| 20260503003429 | 16 | 324 | 0.0 | 1.6 | 0.00 | 0.00 | 0.00 | 47 | 1019.2 |
| 20260503002926 | 16 | 297 | 1.6 | 3.2 | 0.00 | 0.00 | 0.00 | 51 | 1019.1 |
| 20260503002423 | 16 | 316 | 1.6 | 3.2 | 0.00 | 0.00 | 0.00 | 48 | 1019.1 |
| 20260503001919 | 16 | 294 | 1.6 | 3.2 | 0.00 | 0.00 | 0.00 | 51 | 1019.0 |
| 20260503001416 | 16 | 336 | 3.2 | 4.8 | 0.00 | 0.00 | 0.00 | 47 | 1018.8 |
| 20260503000914 | 16 | 290 | 1.6 | 3.2 | 0.00 | 0.00 | 0.00 | 52 | 1018.9 |
| 20260503000411 | 16 | 291 | 1.6 | 4.8 | 0.00 | 0.00 | 0.00 | 48 | 1018.8 |
| 20260502235908 | 16 | 310 | 0.0 | 1.6 | 0.00 | 0.00 | 0.00 | 51 | 1018.5 |
| 20260502235405 | 16 | 311 | 0.0 | 3.2 | 0.00 | 0.00 | 0.00 | 53 | 1018.5 |
| 20260502234902 | 16 | 292 | 3.2 | 3.2 | 0.00 | 0.00 | 0.00 | 50 | 1018.4 |
| 20260502234358 | 16 | 320 | 3.2 | 4.8 | 0.00 | 0.00 | 0.00 | 43 | 1018.2 |
| 20260502233855 | 17 | 62 | 0.0 | 1.6 | 0.00 | 0.00 | 0.00 | 50 | 1018.1 |
| 20260502233351 | 17 | 279 | 3.2 | 3.2 | 0.00 | 0.00 | 0.00 | 45 | 1017.9 |
| 20260502232848 | 17 | 302 | 3.2 | 4.8 | 0.00 | 0.00 | 0.00 | 42 | 1018.1 |
| 20260502232345 | 17 | 301 | 1.6 | 3.2 | 0.00 | 0.00 | 0.00 | 44 | 1018.0 |
| 20260502231841 | 17 | 315 | 1.6 | 4.8 | 0.00 | 0.00 | 0.00 | 44 | 1018.0 |
| 20260502231339 | 17 | 306 | 1.6 | 3.2 | 0.00 | 0.00 | 0.00 | 43 | 1018.1 |
| 20260502230837 | 18 | 156 | 0.0 | 6.4 | 0.00 | 0.00 | 0.00 | 39 | 1018.1 |
| 20260502230335 | 18 | 286 | 3.2 | 6.4 | 0.00 | 0.00 | 0.00 | 38 | 1018.1 |
| 20260502225831 | 18 | 34 | 1.6 | 3.2 | 0.00 | 0.00 | 0.00 | 40 | 1018.1 |
| 20260502225328 | 18 | 273 | 6.4 | 9.7 | 0.00 | 0.00 | 0.00 | 40 | 1017.9 |
| 20260502224825 | 18 | 264 | 4.8 | 6.4 | 0.00 | 0.00 | 0.00 | 37 | 1018.1 |
| 20260502224321 | 18 | 274 | 6.4 | 6.4 | 0.00 | 0.00 | 0.00 | 39 | 1017.9 |
| 20260502223819 | 18 | 310 | 3.2 | 6.4 | 0.00 | 0.00 | 0.00 | 36 | 1018.0 |
| 20260502223317 | 18 | 278 | 6.4 | 9.7 | 0.00 | 0.00 | 0.00 | 36 | 1018.1 |
| 20260502222814 | 18 | 277 | 6.4 | 9.7 | 0.00 | 0.00 | 0.00 | 36 | 1018.0 |
| 20260502222311 | 18 | 355 | 3.2 | 12.9 | 0.00 | 0.00 | 0.00 | 36 | 1018.0 |
| 20260502221807 | 18 | 297 | 6.4 | 6.4 | 0.00 | 0.00 | 0.00 | 36 | 1017.8 |
| 20260502221303 | 18 | 300 | 8.0 | 9.7 | 0.00 | 0.00 | 0.00 | 36 | 1017.8 |
| 20260502220801 | 18 | 352 | 6.4 | 14.5 | 0.00 | 0.00 | 0.00 | 35 | 1017.8 |
| 20260502220256 | 18 | 250 | 4.8 | 9.7 | 0.00 | 0.00 | 0.00 | 37 | 1017.7 |
| 20260502215753 | 19 | 300 | 3.2 | 4.8 | 0.00 | 0.00 | 0.00 | 36 | 1017.8 |
| 20260502215250 | 18 | 289 | 1.6 | 4.8 | 0.00 | 0.00 | 0.00 | 43 | 1017.9 |
| 20260502214748 | 18 | 310 | 3.2 | 9.7 | 0.00 | 0.00 | 0.00 | 37 | 1017.9 |
| 20260502214244 | 19 | 67 | 3.2 | 4.8 | 0.00 | 0.00 | 0.00 | 38 | 1017.6 |
| 20260502213742 | 18 | 24 | 4.8 | 11.3 | 0.00 | 0.00 | 0.00 | 36 | 1017.7 |
| 20260502213239 | 18 | 311 | 3.2 | 6.4 | 0.00 | 0.00 | 0.00 | 38 | 1017.7 |
| 20260502212738 | 18 | 39 | 3.2 | 9.7 | 0.00 | 0.00 | 0.00 | 37 | 1017.7 |
| 20260502212236 | 18 | 317 | 3.2 | 4.8 | 0.00 | 0.00 | 0.00 | 40 | 1017.7 |
| 20260502211731 | 18 | 269 | 3.2 | 6.4 | 0.00 | 0.00 | 0.00 | 37 | 1017.7 |
| 20260502211228 | 18 | 276 | 4.8 | 6.4 | 0.00 | 0.00 | 0.00 | 39 | 1017.6 |
| 20260502210725 | 18 | 270 | 6.4 | 9.7 | 0.00 | 0.00 | 0.00 | 38 | 1017.7 |
| 20260502210222 | 18 | 294 | 4.8 | 9.7 | 0.00 | 0.00 | 0.00 | 38 | 1017.5 |
| 20260502205720 | 18 | 338 | 1.6 | 11.3 | 0.00 | 0.00 | 0.00 | 39 | 1017.6 |
| 20260502205216 | 19 | 266 | 3.2 | 6.4 | 0.00 | 0.00 | 0.00 | 36 | 1017.9 |
| 20260502204713 | 19 | 319 | 3.2 | 4.8 | 0.00 | 0.00 | 0.00 | 37 | 1017.7 |
| 20260502204211 | 18 | 246 | 1.6 | 4.8 | 0.00 | 0.00 | 0.00 | 39 | 1017.7 |
| 20260502203708 | 18 | 35 | 1.6 | 4.8 | 0.00 | 0.00 | 0.00 | 38 | 1017.8 |
| 20260502203206 | 18 | 292 | 6.4 | 12.9 | 0.00 | 0.00 | 0.00 | 38 | 1017.7 |
| 20260502202659 | 18 | 341 | 4.8 | 11.3 | 0.00 | 0.00 | 0.00 | 35 | 1017.7 |
| 20260502202158 | 19 | 61 | 6.4 | 6.4 | 0.00 | 0.00 | 0.00 | 37 | 1017.6 |
| 20260502201655 | 19 | 276 | 3.2 | 11.3 | 0.00 | 0.00 | 0.00 | 34 | 1017.8 |
| 20260502201152 | 19 | 304 | 6.4 | 11.3 | 0.00 | 0.00 | 0.00 | 37 | 1017.8 |
| 20260502200647 | 19 | 254 | 3.2 | 14.5 | 0.00 | 0.00 | 0.00 | 40 | 1017.7 |
| 20260502200144 | 19 | 125 | 1.6 | 4.8 | 0.00 | 0.00 | 0.00 | 39 | 1017.8 |
| 20260502195643 | 18 | 258 | 8.0 | 12.9 | 0.00 | 0.00 | 0.00 | 35 | 1017.7 |
| 20260502195138 | 20 | 271 | 1.6 | 9.7 | 0.00 | 0.00 | 0.00 | 36 | 1017.6 |
| 20260502194635 | 20 | 238 | 3.2 | 6.4 | 0.00 | 0.00 | 0.00 | 37 | 1017.8 |
| 20260502194132 | 18 | 95 | 3.2 | 4.8 | 0.00 | 0.00 | 0.00 | 44 | 1017.8 |
| 20260502193629 | 18 | 43 | 6.4 | 6.4 | 0.00 | 0.00 | 0.00 | 37 | 1017.9 |
| 20260502193126 | 18 | 281 | 1.6 | 6.4 | 0.00 | 0.00 | 0.00 | 38 | 1017.8 |
| 20260502192621 | 17 | 340 | 3.2 | 6.4 | 0.00 | 0.00 | 0.00 | 39 | 1017.9 |
| 20260502192119 | 17 | 83 | 3.2 | 9.7 | 0.00 | 0.00 | 0.00 | 44 | 1018.2 |
| 20260502191615 | 17 | 34 | 8.0 | 11.3 | 0.00 | 0.00 | 0.00 | 42 | 1018.2 |
| 20260502191113 | 17 | 78 | 9.7 | 12.9 | 0.00 | 0.00 | 0.00 | 45 | 1018.1 |
| 20260502190610 | 17 | 61 | 8.0 | 11.3 | 0.00 | 0.00 | 0.00 | 52 | 1017.9 |
| 20260502190108 | 17 | 58 | 8.0 | 11.3 | 0.00 | 0.00 | 0.00 | 41 | 1017.9 |
| 20260502185602 | 17 | 96 | 3.2 | 6.4 | 0.00 | 0.00 | 0.00 | 42 | 1017.9 |
| 20260502185059 | 17 | 66 | 6.4 | 12.9 | 0.00 | 0.00 | 0.00 | 50 | 1018.3 |
| 20260502184555 | 17 | 67 | 6.4 | 11.3 | 0.00 | 0.00 | 0.00 | 46 | 1018.2 |
| 20260502184051 | 17 | 46 | 12.9 | 16.1 | 0.00 | 0.00 | 0.00 | 50 | 1018.1 |
| 20260502183548 | 17 | 77 | 8.0 | 11.3 | 0.00 | 0.00 | 0.00 | 40 | 1018.3 |
| 20260502183044 | 17 | 67 | 4.8 | 4.8 | 0.00 | 0.00 | 0.00 | 42 | 1018.3 |
| 20260502182539 | 17 | 0 | 6.4 | 9.7 | 0.00 | 0.00 | 0.00 | 42 | 1018.4 |
| 20260502182035 | 17 | 94 | 1.6 | 11.3 | 0.00 | 0.00 | 0.00 | 38 | 1018.4 |
| 20260502181533 | 18 | 204 | 0.0 | 6.4 | 0.00 | 0.00 | 0.00 | 40 | 1018.5 |
| 20260502181032 | 17 | 82 | 6.4 | 11.3 | 0.00 | 0.00 | 0.00 | 44 | 1018.4 |
| 20260502180528 | 17 | 60 | 12.9 | 14.5 | 0.00 | 0.00 | 0.00 | 52 | 1018.4 |
| 20260502170447 | 15 | 70 | 8.0 | 11.3 | 0.00 | 0.00 | 0.00 | 49 | 1019.1 |
| 20260502163931 | 15 | 48 | 12.9 | 14.5 | 0.00 | 0.00 | 0.00 | 53 | 1019.4 |
| 20260502163427 | 15 | 58 | 9.7 | 16.1 | 0.00 | 0.00 | 0.00 | 53 | 1019.3 |
| 20260502162925 | 16 | 65 | 8.0 | 11.3 | 0.00 | 0.00 | 0.00 | 50 | 1019.2 |
| 20260502162421 | 15 | 68 | 12.9 | 12.9 | 0.00 | 0.00 | 0.00 | 51 | 1019.6 |
| 20260502161918 | 15 | 76 | 9.7 | 12.9 | 0.00 | 0.00 | 0.00 | 48 | 1019.5 |
| 20260502161414 | 15 | 83 | 4.8 | 11.3 | 0.00 | 0.00 | 0.00 | 50 | 1019.8 |
| 20260502160912 | 15 | 357 | 3.2 | 11.3 | 0.00 | 0.00 | 0.00 | 55 | 1019.6 |
| 20260502160410 | 15 | 91 | 3.2 | 9.7 | 0.00 | 0.00 | 0.00 | 50 | 1019.5 |
| 20260502151849 | 15 | 47 | 6.4 | 9.7 | 0.00 | 0.00 | 0.00 | 51 | 1019.5 |
| 20260502151345 | 15 | 58 | 6.4 | 6.4 | 0.00 | 0.00 | 0.00 | 48 | 1019.3 |
| 20260502150843 | 15 | 15 | 3.2 | 6.4 | 0.00 | 0.00 | 0.00 | 48 | 1019.0 |
| 20260502150339 | 15 | 85 | 9.7 | 12.9 | 0.00 | 0.00 | 0.00 | 46 | 1019.0 |
| 20260502130727 | 12 | 295 | 9.7 | 12.9 | 0.00 | 0.00 | 0.00 | 60 | 1018.8 |
| 20260502130225 | 13 | 15 | 1.6 | 3.2 | 0.00 | 0.00 | 0.00 | 62 | 1018.5 |
| 20260502123711 | 12 | 25 | 1.6 | 6.4 | 0.00 | 0.00 | 0.00 | 64 | 1018.3 |
| 20260502123208 | 12 | 342 | 1.6 | 3.2 | 0.00 | 0.00 | 0.00 | 66 | 1018.3 |
| 20260502122704 | 12 | 314 | 1.6 | 4.8 | 0.00 | 0.00 | 0.00 | 67 | 1018.3 |
| 20260502122201 | 12 | 19 | 1.6 | 9.7 | 0.00 | 0.00 | 0.00 | 67 | 1018.0 |
| 20260502121659 | 12 | 283 | 3.2 | 4.8 | 0.00 | 0.00 | 0.00 | 67 | 1018.3 |
| 20260502121156 | 11 | 284 | 6.4 | 6.4 | 0.00 | 0.00 | 0.00 | 67 | 1018.2 |
| 20260502120653 | 11 | 301 | 3.2 | 4.8 | 0.00 | 0.00 | 0.00 | 68 | 1018.3 |
| 20260502120150 | 11 | 28 | 0.0 | 4.8 | 0.00 | 0.00 | 0.00 | 67 | 1018.1 |
| 20260502115647 | 11 | 295 | 3.2 | 6.4 | 0.00 | 0.00 | 0.00 | 68 | 1018.2 |
| 20260502115143 | 11 | 308 | 0.0 | 1.6 | 0.00 | 0.00 | 0.00 | 69 | 1018.1 |
| 20260502114639 | 11 | 310 | 3.2 | 3.2 | 0.00 | 0.00 | 0.00 | 68 | 1018.1 |
| 20260502114137 | 11 | 272 | 1.6 | 4.8 | 0.00 | 0.00 | 0.00 | 66 | 1017.9 |
| 20260502113634 | 11 | 275 | 3.2 | 4.8 | 0.00 | 0.00 | 0.00 | 66 | 1018.2 |
| 20260502113132 | 11 | 277 | 3.2 | 4.8 | 0.00 | 0.00 | 0.00 | 67 | 1018.1 |
| 20260502112630 | 11 | 294 | 1.6 | 3.2 | 0.00 | 0.00 | 0.00 | 67 | 1018.2 |
| 20260502112127 | 11 | 277 | 1.6 | 6.4 | 0.00 | 0.00 | 0.00 | 66 | 1018.2 |
| 20260502111625 | 11 | 306 | 0.0 | 3.2 | 0.00 | 0.00 | 0.00 | 65 | 1017.9 |
| 20260502111122 | 12 | 312 | 4.8 | 6.4 | 0.00 | 0.00 | 0.00 | 68 | 1017.7 |
| 20260502110620 | 11 | 16 | 1.6 | 3.2 | 0.00 | 0.00 | 0.00 | 66 | 1017.9 |
| 20260502110117 | 11 | 329 | 3.2 | 4.8 | 0.00 | 0.00 | 0.00 | 64 | 1017.9 |
| 20260502105614 | 11 | 329 | 0.0 | 3.2 | 0.00 | 0.00 | 0.00 | 65 | 1017.9 |
| 20260502105111 | 11 | 46 | 0.0 | 3.2 | 0.00 | 0.00 | 0.00 | 65 | 1017.5 |
| 20260502104608 | 12 | 288 | 1.6 | 4.8 | 0.00 | 0.00 | 0.00 | 67 | 1017.5 |
| 20260502104106 | 12 | 256 | 1.6 | 3.2 | 0.00 | 0.00 | 0.00 | 66 | 1017.4 |
| 20260502103603 | 12 | 286 | 3.2 | 4.8 | 0.00 | 0.00 | 0.00 | 66 | 1017.6 |
| 20260502103101 | 12 | 311 | 3.2 | 6.4 | 0.00 | 0.00 | 0.00 | 63 | 1017.4 |
| 20260502102557 | 12 | 266 | 4.8 | 4.8 | 0.00 | 0.00 | 0.00 | 64 | 1017.4 |
| 20260502102054 | 12 | 299 | 3.2 | 6.4 | 0.00 | 0.00 | 0.00 | 64 | 1017.3 |
| 20260502101552 | 12 | 50 | 4.8 | 9.7 | 0.00 | 0.00 | 0.00 | 65 | 1017.6 |
| 20260502101050 | 12 | 319 | 3.2 | 6.4 | 0.00 | 0.00 | 0.00 | 63 | 1017.5 |
| 20260502100549 | 12 | 285 | 4.8 | 9.7 | 0.00 | 0.00 | 0.00 | 64 | 1017.6 |
| 20260502091523 | 12 | 288 | 3.2 | 6.4 | 0.00 | 0.00 | 0.00 | 61 | 1017.3 |
| 20260502091021 | 12 | 289 | 3.2 | 6.4 | 0.00 | 0.00 | 0.00 | 62 | 1017.4 |
| 20260502090517 | 12 | 273 | 4.8 | 6.4 | 0.00 | 0.00 | 0.00 | 61 | 1017.5 |
| 20260502071412 | 13 | 306 | 3.2 | 4.8 | 0.00 | 0.00 | 0.00 | 56 | 1018.1 |
| 20260502070910 | 13 | 308 | 3.2 | 6.4 | 0.00 | 0.00 | 0.00 | 56 | 1018.2 |
| 20260502070408 | 13 | 322 | 3.2 | 4.8 | 0.00 | 0.00 | 0.00 | 56 | 1018.7 |
| 20260502065906 | 13 | 346 | 3.2 | 3.2 | 0.00 | 0.00 | 0.00 | 57 | 1018.5 |
| 20260502065404 | 13 | 4 | 1.6 | 4.8 | 0.00 | 0.00 | 0.00 | 56 | 1018.7 |
| 20260502064902 | 13 | 303 | 3.2 | 3.2 | 0.00 | 0.00 | 0.00 | 59 | 1018.4 |
| 20260502064400 | 13 | 276 | 3.2 | 3.2 | 0.00 | 0.00 | 0.00 | 57 | 1018.5 |
| 20260502063856 | 13 | 281 | 1.6 | 4.8 | 0.00 | 0.00 | 0.00 | 55 | 1018.3 |
| 20260502063354 | 13 | 285 | 1.6 | 3.2 | 0.00 | 0.00 | 0.00 | 56 | 1018.5 |
| 20260502062851 | 13 | 284 | 3.2 | 4.8 | 0.00 | 0.00 | 0.00 | 54 | 1018.4 |
| 20260502062349 | 13 | 358 | 0.0 | 4.8 | 0.00 | 0.00 | 0.00 | 54 | 1018.2 |
| 20260502061848 | 13 | 308 | 1.6 | 6.4 | 0.00 | 0.00 | 0.00 | 54 | 1018.3 |
| 20260502061345 | 13 | 304 | 3.2 | 6.4 | 0.00 | 0.00 | 0.00 | 54 | 1018.2 |
| 20260502060841 | 13 | 305 | 1.6 | 3.2 | 0.00 | 0.00 | 0.00 | 55 | 1018.3 |
| 20260502060336 | 13 | 112 | 0.0 | 3.2 | 0.00 | 0.00 | 0.00 | 54 | 1018.7 |
| 20260502055834 | 13 | 69 | 0.0 | 0.0 | 0.00 | 0.00 | 0.00 | 54 | 1018.5 |
| 20260502055331 | 13 | 324 | 1.6 | 4.8 | 0.00 | 0.00 | 0.00 | 54 | 1018.7 |
| 20260502054831 | 14 | 306 | 3.2 | 6.4 | 0.00 | 0.00 | 0.00 | 53 | 1018.7 |
| 20260502054328 | 14 | 269 | 1.6 | 3.2 | 0.00 | 0.00 | 0.00 | 56 | 1018.8 |
| 20260502053825 | 14 | 300 | 3.2 | 3.2 | 0.00 | 0.00 | 0.00 | 52 | 1018.2 |
| 20260502053322 | 14 | 299 | 3.2 | 3.2 | 0.00 | 0.00 | 0.00 | 55 | 1018.1 |
| 20260502052820 | 14 | 324 | 0.0 | 3.2 | 0.00 | 0.00 | 0.00 | 52 | 1018.3 |
| 20260502052318 | 14 | 1 | 1.6 | 3.2 | 0.00 | 0.00 | 0.00 | 53 | 1018.2 |
| 20260502051815 | 14 | 326 | 0.0 | 3.2 | 0.00 | 0.00 | 0.00 | 53 | 1018.2 |
| 20260502051314 | 14 | 289 | 1.6 | 3.2 | 0.00 | 0.00 | 0.00 | 52 | 1018.2 |
| 20260502050810 | 14 | 332 | 3.2 | 4.8 | 0.00 | 0.00 | 0.00 | 54 | 1018.1 |
| 20260502050306 | 14 | 281 | 1.6 | 3.2 | 0.00 | 0.00 | 0.00 | 53 | 1018.2 |
| 20260502045803 | 15 | 37 | 0.0 | 0.0 | 0.00 | 0.00 | 0.00 | 53 | 1018.0 |
| 20260502045300 | 15 | 61 | 1.6 | 1.6 | 0.00 | 0.00 | 0.00 | 52 | 1018.3 |
| 20260502044757 | 15 | 315 | 3.2 | 3.2 | 0.00 | 0.00 | 0.00 | 52 | 1018.2 |
| 20260502044253 | 15 | 281 | 1.6 | 3.2 | 0.00 | 0.00 | 0.00 | 52 | 1018.1 |
| 20260502043751 | 15 | 18 | 1.6 | 6.4 | 0.00 | 0.00 | 0.00 | 54 | 1018.3 |
| 20260502043248 | 15 | 296 | 3.2 | 3.2 | 0.00 | 0.00 | 0.00 | 52 | 1018.1 |
| 20260502042747 | 15 | 353 | 3.2 | 4.8 | 0.00 | 0.00 | 0.00 | 52 | 1018.0 |
| 20260502042245 | 15 | 151 | 0.0 | 4.8 | 0.00 | 0.00 | 0.00 | 53 | 1018.1 |
| 20260502041743 | 15 | 72 | 1.6 | 3.2 | 0.00 | 0.00 | 0.00 | 54 | 1018.0 |
| 20260502041240 | 15 | 305 | 4.8 | 4.8 | 0.00 | 0.00 | 0.00 | 53 | 1018.2 |
| 20260502040736 | 15 | 43 | 1.6 | 4.8 | 0.00 | 0.00 | 0.00 | 53 | 1018.2 |
| 20260502040233 | 15 | 19 | 1.6 | 4.8 | 0.00 | 0.00 | 0.00 | 54 | 1018.2 |
| 20260502035729 | 15 | 126 | 0.0 | 3.2 | 0.00 | 0.00 | 0.00 | 56 | 1018.2 |
| 20260502035226 | 15 | 352 | 3.2 | 4.8 | 0.00 | 0.00 | 0.00 | 54 | 1018.4 |
| 20260502034724 | 15 | 72 | 1.6 | 3.2 | 0.00 | 0.00 | 0.00 | 57 | 1018.4 |
| 20260502034222 | 15 | 322 | 4.8 | 6.4 | 0.00 | 0.00 | 0.00 | 57 | 1018.1 |
| 20260502033720 | 15 | 348 | 3.2 | 11.3 | 0.00 | 0.00 | 0.00 | 57 | 1018.1 |
| 20260502033217 | 15 | 300 | 1.6 | 3.2 | 0.00 | 0.00 | 0.00 | 60 | 1018.2 |
| 20260502032714 | 16 | 353 | 1.6 | 3.2 | 0.00 | 0.00 | 0.00 | 62 | 1018.3 |
| 20260502032209 | 16 | 0 | 4.8 | 6.4 | 0.00 | 0.00 | 0.00 | 58 | 1018.2 |
| 20260502031708 | 16 | 320 | 4.8 | 6.4 | 0.00 | 0.00 | 0.00 | 60 | 1018.3 |
| 20260502031205 | 16 | 306 | 3.2 | 6.4 | 0.00 | 0.00 | 0.00 | 60 | 1018.1 |
| 20260502030704 | 16 | 315 | 3.2 | 4.8 | 0.00 | 0.00 | 0.00 | 60 | 1018.1 |
| 20260502030202 | 16 | 68 | 1.6 | 4.8 | 0.00 | 0.00 | 0.00 | 60 | 1018.0 |
| 20260502025658 | 16 | 68 | 0.0 | 3.2 | 0.00 | 0.00 | 0.00 | 60 | 1018.1 |
| 20260502025156 | 16 | 32 | 1.6 | 4.8 | 0.00 | 0.00 | 0.00 | 61 | 1017.9 |
| 20260502024654 | 16 | 103 | 0.0 | 4.8 | 0.00 | 0.00 | 0.00 | 61 | 1017.8 |
| 20260502024152 | 16 | 33 | 4.8 | 4.8 | 0.00 | 0.00 | 0.00 | 60 | 1017.8 |
| 20260502023650 | 16 | 1 | 3.2 | 4.8 | 0.00 | 0.00 | 0.00 | 61 | 1017.8 |
| 20260502023147 | 16 | 25 | 1.6 | 6.4 | 0.00 | 0.00 | 0.00 | 59 | 1017.9 |
| 20260502022644 | 16 | 20 | 1.6 | 3.2 | 0.00 | 0.00 | 0.00 | 59 | 1018.1 |
| 20260502022141 | 16 | 288 | 1.6 | 3.2 | 0.00 | 0.00 | 0.00 | 59 | 1017.8 |
| 20260502021638 | 16 | 77 | 0.0 | 1.6 | 0.00 | 0.00 | 0.00 | 62 | 1017.7 |
| 20260502021135 | 16 | 293 | 1.6 | 4.8 | 0.00 | 0.00 | 0.00 | 60 | 1017.9 |
| 20260502020632 | 16 | 277 | 1.6 | 3.2 | 0.00 | 0.00 | 0.00 | 61 | 1017.6 |
| 20260502020129 | 16 | 339 | 3.2 | 6.4 | 0.00 | 0.00 | 0.00 | 59 | 1017.9 |
| 20260502015627 | 16 | 329 | 1.6 | 4.8 | 0.00 | 0.00 | 0.00 | 59 | 1017.9 |
| 20260502015123 | 17 | 1 | 3.2 | 4.8 | 0.00 | 0.00 | 0.00 | 60 | 1017.6 |
| 20260502014620 | 17 | 252 | 3.2 | 6.4 | 0.00 | 0.00 | 0.00 | 60 | 1017.3 |
| 20260502014118 | 17 | 286 | 9.7 | 11.3 | 0.00 | 0.00 | 0.00 | 61 | 1017.6 |
| 20260502013613 | 17 | 309 | 6.4 | 6.4 | 0.00 | 0.00 | 0.00 | 61 | 1017.2 |
| 20260502013109 | 17 | 289 | 3.2 | 6.4 | 0.00 | 0.00 | 0.00 | 60 | 1017.4 |
| 20260502012607 | 17 | 299 | 3.2 | 4.8 | 0.00 | 0.00 | 0.00 | 61 | 1017.4 |
| 20260502012105 | 17 | 307 | 6.4 | 11.3 | 0.00 | 0.00 | 0.00 | 59 | 1017.5 |
| 20260502011601 | 17 | 272 | 4.8 | 6.4 | 0.00 | 0.00 | 0.00 | 60 | 1017.1 |
| 20260502011057 | 17 | 316 | 3.2 | 4.8 | 0.00 | 0.00 | 0.00 | 59 | 1017.0 |
| 20260502010555 | 17 | 285 | 3.2 | 4.8 | 0.00 | 0.00 | 0.00 | 59 | 1016.7 |